Date String (YYYY-MM-DD hh:mm:ss) UTC,Instrument flags,absolute air pressure of the measurement (hPa),sample flow rate (lpm),inlet stack bypass flow (lpm),air temperature of the measurement (°C),ambient temperature measured by the external sensor (°C),aerosol sample conditioner tube jacket temperature (°C),OPC LED temperature (°C),internal box temperature (°C),relative humidity of the measurement (%),span deviation,mass concentration of particles derived from Lorenz-Mie calculation of OPC scattering (μg/m³),mass concentration of particles derived from Lorenz-Mie calculation of OPC scattering (μg/m³),mass concentration of particles derived from Lorenz-Mie calculation of OPC scattering (μg/m³)
DateTimeUTC,F1_M11,P_M11,Q1_M11,Q2_M11,T1_M11,T2_M11,T3_M11,T4_M11,T5_M11,U1_M11,ZSPAN_M11,X2_M11,X0_M11,X1_M11
2023-09-11 11:00:00,SystemResetWarning,0836.2,5.01,000.00,029.0,027.6,000.0,037.2,030.7,30.9,-000.8,0003.44,0005.12,0003.19
2023-09-11 11:01:00,SystemResetWarning,0836.2,5.01,000.00,029.0,027.6,000.0,037.2,030.7,30.9,-000.9,0003.57,0005.42,0003.28
2023-09-11 11:02:00,SystemResetWarning,0836.2,5.01,000.00,029.0,027.7,000.0,037.3,030.7,30.8,-001.1,0003.65,0005.44,0003.36
2023-09-11 11:03:00,SystemResetWarning,0836.3,4.99,000.00,029.0,027.7,000.0,037.3,030.7,30.7,-001.2,0003.72,0005.51,0003.41
2023-09-11 11:04:00,SystemResetWarning,0836.3,5.00,000.00,029.0,027.7,000.0,037.3,030.7,30.6,-000.9,0003.76,0005.63,0003.44
2023-09-11 11:05:00,SystemResetWarning,0836.3,5.00,000.00,029.0,027.7,000.0,037.3,030.7,30.6,-000.8,0003.75,0005.60,0003.44
2023-09-11 11:06:00,SystemResetWarning,0836.4,5.00,000.00,029.0,027.7,000.0,037.3,030.7,30.6,-001.0,0003.75,0005.71,0003.44
2023-09-11 11:07:00,SystemResetWarning,0836.4,5.00,000.00,029.1,027.7,000.0,037.3,030.7,30.6,-000.4,0003.76,0005.85,0003.41
2023-09-11 11:08:00,SystemResetWarning,0836.5,5.01,000.00,029.1,027.7,000.0,037.3,030.7,30.5,-000.1,0003.75,0005.81,0003.40
2023-09-11 11:09:00,SystemResetWarning,0836.5,5.01,000.00,029.1,027.7,000.0,037.3,030.7,30.5,-000.2,0003.74,0005.82,0003.39
2023-09-11 11:10:00,SystemResetWarning,0836.5,5.01,000.00,029.1,027.7,000.0,037.3,030.7,30.4,0000.0,0003.69,0005.56,0003.38
2023-09-11 11:11:00,SystemResetWarning,0836.5,5.00,000.00,029.1,027.7,000.0,037.3,030.8,30.4,0000.0,0003.66,0005.45,0003.37
2023-09-11 11:12:00,SystemResetWarning,0836.5,4.99,000.00,029.1,027.7,000.0,037.3,030.8,30.4,0000.0,0003.62,0005.36,0003.34
2023-09-11 11:13:00,SystemResetWarning,0836.6,4.99,000.00,029.1,027.7,000.0,037.4,030.8,30.3,0000.0,0003.61,0005.39,0003.32
2023-09-11 11:14:00,SystemResetWarning,0836.5,4.99,000.00,029.1,027.7,000.0,037.4,030.8,30.4,0000.0,0003.59,0005.36,0003.30
2023-09-11 11:15:00,SystemResetWarning,0836.6,5.00,000.00,029.1,027.8,000.0,037.4,030.8,30.3,0000.0,0003.59,0005.39,0003.29
2023-09-11 11:16:00,SystemResetWarning,0836.5,5.01,000.00,029.1,027.8,000.0,037.4,030.8,30.5,0000.0,0003.62,0005.58,0003.30
2023-09-11 11:17:00,SystemResetWarning,0836.6,5.01,000.00,029.1,027.8,000.0,037.4,030.8,30.6,0000.0,0003.60,0005.47,0003.29
2023-09-11 11:18:00,SystemResetWarning,0836.6,5.00,000.00,029.2,027.8,000.0,037.4,030.8,30.6,0000.0,0003.60,0005.42,0003.31
2023-09-11 11:19:00,SystemResetWarning,0836.6,4.99,000.00,029.2,027.8,000.0,037.4,030.8,30.5,-000.1,0003.63,0005.49,0003.33
2023-09-11 11:20:00,SystemResetWarning,0836.6,4.99,000.00,029.2,027.8,000.0,037.4,030.8,30.4,-000.0,0003.66,0005.51,0003.35
2023-09-11 11:21:00,SystemResetWarning,0836.6,5.00,000.00,029.2,027.8,000.0,037.4,030.9,30.4,-000.1,0003.71,0005.67,0003.38
2023-09-11 11:22:00,SystemResetWarning,0836.7,5.01,000.00,029.2,027.8,000.0,037.5,030.9,30.4,-000.1,0003.75,0005.80,0003.40
2023-09-11 11:23:00,SystemResetWarning,0836.7,5.00,000.00,029.2,027.8,000.0,037.5,030.9,30.4,-001.4,0003.79,0005.92,0003.43
2023-09-11 11:24:00,SystemResetWarning,0836.7,5.00,000.00,029.2,027.9,000.0,037.5,030.9,30.4,-001.5,0003.82,0005.99,0003.46
2023-09-11 11:25:00,SystemResetWarning,0836.8,5.00,000.00,029.2,027.9,000.0,037.5,030.9,30.3,-001.0,0003.86,0006.14,0003.49
2023-09-11 11:26:00,SystemResetWarning,0836.8,5.00,000.00,029.2,027.9,000.0,037.5,030.9,30.3,-001.3,0003.89,0006.25,0003.52
2023-09-11 11:27:00,SystemResetWarning,0836.8,5.00,000.00,029.2,027.9,000.0,037.5,030.9,30.4,-001.7,0003.89,0006.14,0003.55
2023-09-11 11:28:00,SystemResetWarning,0836.8,5.00,000.00,029.3,027.9,000.0,037.5,030.9,30.5,-001.5,0003.95,0006.38,0003.60
2023-09-11 11:29:00,SystemResetWarning,0836.8,5.00,000.00,029.3,027.9,000.0,037.5,030.9,30.4,-001.3,0003.97,0006.41,0003.63
2023-09-11 11:30:00,SystemResetWarning,0836.8,5.00,000.00,029.3,027.9,000.0,037.5,030.9,30.4,-000.9,0004.01,0006.49,0003.67
2023-09-11 11:31:00,SystemResetWarning,0836.9,5.00,000.00,029.3,027.9,000.0,037.5,030.9,30.4,-000.7,0004.03,0006.50,0003.71
2023-09-11 11:32:00,SystemResetWarning,0836.8,4.99,000.00,029.3,027.9,000.0,037.5,030.9,30.5,-001.0,0004.05,0006.93,0003.73
2023-09-11 11:33:00,SystemResetWarning,0836.8,5.01,000.00,029.3,027.9,000.0,037.6,031.0,30.5,-001.0,0004.08,0007.32,0003.75
2023-09-11 11:34:00,SystemResetWarning,0836.8,5.00,000.00,029.3,027.9,000.0,037.6,031.0,30.3,-000.8,0004.09,0007.35,0003.77
2023-09-11 11:35:00,SystemResetWarning,0836.8,5.00,000.00,029.3,027.9,000.0,037.6,031.0,30.3,-000.9,0004.11,0007.38,0003.79
2023-09-11 11:36:00,SystemResetWarning,0836.8,5.00,000.00,029.3,028.0,000.0,037.6,031.0,30.4,-000.9,0004.11,0007.56,0003.79
2023-09-11 11:37:00,SystemResetWarning,0836.8,5.00,000.00,029.3,028.0,000.0,037.6,031.0,30.4,-000.6,0004.11,0007.83,0003.78
2023-09-11 11:38:00,SystemResetWarning,0836.9,5.00,000.00,029.3,028.0,000.0,037.6,031.0,30.2,0000.1,0004.16,0008.62,0003.78
2023-09-11 11:39:00,SystemResetWarning,0836.9,5.00,000.00,029.3,028.0,000.0,037.6,031.0,30.0,0000.3,0004.17,0008.72,0003.75
2023-09-11 11:40:00,SystemResetWarning,0836.8,5.00,000.00,029.4,028.0,000.0,037.6,031.0,29.9,0000.7,0004.17,0008.73,0003.75
2023-09-11 11:41:00,SystemResetWarning,0836.9,4.99,000.00,029.4,028.0,000.0,037.6,031.0,29.8,0000.1,0004.15,0009.00,0003.72
2023-09-11 11:42:00,SystemResetWarning,0836.9,4.99,000.00,029.4,028.0,000.0,037.6,031.0,29.7,0000.1,0004.12,0009.06,0003.68
2023-09-11 11:43:00,SystemResetWarning,0837.0,5.00,000.00,029.4,028.0,000.0,037.6,031.0,29.5,-000.0,0004.09,0008.86,0003.66
2023-09-11 11:44:00,SystemResetWarning,0837.0,5.01,000.00,029.4,028.0,000.0,037.7,031.0,29.4,0000.6,0004.06,0008.63,0003.63
2023-09-11 11:45:00,SystemResetWarning,0837.0,5.00,000.00,029.4,028.0,000.0,037.7,031.1,29.3,0000.7,0004.04,0008.76,0003.60
2023-09-11 11:46:00,SystemResetWarning,0836.9,5.01,000.00,029.4,028.0,000.0,037.7,031.0,29.2,0000.8,0004.02,0008.83,0003.57
2023-09-11 11:47:00,SystemResetWarning,0836.9,5.01,000.00,029.4,028.0,000.0,037.7,031.1,29.1,0000.8,0004.01,0008.63,0003.57
2023-09-11 11:48:00,SystemResetWarning,0837.0,5.00,000.00,029.4,028.0,000.0,037.7,031.1,29.0,0000.9,0003.99,0008.46,0003.56
2023-09-11 11:49:00,SystemResetWarning,0837.0,5.00,000.00,029.4,028.1,000.0,037.7,031.1,28.9,0000.8,0003.93,0007.63,0003.55
2023-09-11 11:50:00,SystemResetWarning,0837.0,5.00,000.00,029.4,028.1,000.0,037.7,031.1,28.8,0000.5,0003.90,0007.47,0003.55
2023-09-11 11:51:00,SystemResetWarning,0837.0,5.00,000.00,029.4,028.1,000.0,037.7,031.0,28.7,0000.3,0003.88,0007.44,0003.55
2023-09-11 11:52:00,SystemResetWarning,0837.1,5.00,000.00,029.4,028.1,000.0,037.7,031.1,28.7,0000.9,0003.93,0007.21,0003.57
2023-09-11 11:53:00,SystemResetWarning,0837.1,4.99,000.00,029.4,027.0,000.0,037.7,030.9,28.7,0000.2,0003.98,0007.27,0003.62
2023-09-11 11:54:00,SystemResetWarning,0837.1,5.01,000.00,029.3,025.4,000.0,037.6,030.5,28.9,0000.2,0004.03,0007.42,0003.67
2023-09-11 11:55:00,SystemResetWarning,0837.0,5.01,000.00,029.2,024.7,000.0,037.5,030.3,29.1,-000.0,0004.03,0007.42,0003.70
2023-09-11 11:56:00,SystemResetWarning,0837.1,5.00,000.00,029.0,024.8,000.0,037.5,030.0,29.4,-000.7,0004.05,0007.28,0003.74
2023-09-11 11:57:00,SystemResetWarning,0837.1,4.99,000.00,028.9,025.2,000.0,037.5,030.0,29.7,-000.6,0004.09,0007.07,0003.79
2023-09-11 11:58:00,SystemResetWarning,0837.1,5.01,000.00,028.9,025.5,000.0,037.5,030.0,29.9,-000.6,0004.14,0007.13,0003.84
2023-09-11 11:59:00,SystemResetWarning,0837.1,5.02,000.00,028.8,025.9,000.0,037.4,030.1,30.0,-000.7,0004.21,0007.61,0003.90
